Starlink 5059

operational
NORAD ID: 53912 Int'l Des: 2022-119 Owner: SPXS Country: US Constellation: starlink
LEOCIRCULAR

About Starlink 5059

Description loading...

Live Position

Loading 3D Globe...

Upcoming Passes

Altitude History

Altitude vs Time

uPlot chart will show altitude changes over time

Two-Line Element Set

1 53912U 22119AC 26063.14909711 .00000868 00000-0 72634-4 0 9992
2 53912 53.2193 338.6334 0001305 76.4565 283.6573 15.08842103190991
Epoch: Mar 4, 2026 • Age: 18 hours

Current Status

Altitude 543.7 km
Velocity 7.60 km/s
Sub-Earth Point 44.61°N, 29.99°E
Launch Date Sep 24, 2022
Age 3.4 years
Type internet

Technical Details

Classification Payload
Mass 305.00 kg
Dry Mass 290.00 kg
Total Mass 305.00 kg
Length 0.20 m
Diameter 2.80 m
Span 9.00 m
Shape Box + pan
Manufacturer SPXS
Bus Type Starlink
Phase Status In Orbit
Owner/State SPXS/US

Large Constellations

Loading constellations...